Location: Clanezzo
(45.7500°N, 9.6000°E)
Time: 04:21:03
(UTC+00:00)

Cosmos 158 Rocket - Pass Details

Date: 12 May 2021
Orbit: 699 x 793 km, 74.0° (Epoch: 18 June)

Event Time Altitude Azimuth Distance (km) Brightness Sun altitude
Rises 20:54:57 0° 338° (NNW) 3,093 8.7 -18.2°
Reaches altitude 10° 20:57:16 10° 338° (NNW) 2,173 7.5 -18.4°
Maximum altitude 21:02:10 86° 252° (WSW) 713 3.8 -18.9°
Enters shadow 21:04:05 38° 164° (SSE) 1,077 4.3 -19.1°
